Overview Statistics Trail Chart Weather Telemetry Raw packets
 

This is the latest recevied weather packets stored in our database for station/object KB4RFE. If no packets are shown the sender has not sent any weather packets the latest 10 day(s).

<< 50 51 52 53 54 55 56 >>
Time Temp. Humidity Pressure Rain* Wind** Luminosity Snow
1788284138 31.67° C 74% 1021.7 hPa 0 mm - 825 W/m² -
1788283834 31.67° C 74% 1021.7 hPa 0 mm - 823 W/m² -
1788283529 31.67° C 73% 1021.6 hPa 0 mm - 821 W/m² -
1788283227 31.67° C 77% 1021.8 hPa 0 mm - 819 W/m² -
1788282927 31.67° C 74% 1021.8 hPa 0 mm - 815 W/m² -
1788282625 31.67° C 71% 1021.8 hPa 0 mm - 810 W/m² -
1788282320 31.67° C 73% 1021.7 hPa 0 mm - 806 W/m² -
1788282015 32.22° C 73% 1022 hPa 0 mm - 801 W/m² -
1788281722 32.22° C 72% 1021.8 hPa 0 mm - 795 W/m² -
1788281404 32.22° C 70% 1022 hPa 0 mm - 790 W/m² -
1788281099 32.22° C 71% 1021.9 hPa 0 mm - 786 W/m² -
1788280794 32.22° C 72% 1022 hPa 0 mm - 781 W/m² -
1788280490 32.78° C 70% 1022 hPa 0 mm - 777 W/m² -
1788280188 32.22° C 70% 1022.1 hPa 0 mm - 773 W/m² -
1788279883 32.22° C 69% 1022.4 hPa 0 mm - 769 W/m² -
1788279583 32.22° C 69% 1022.2 hPa 0 mm - 767 W/m² -
1788279282 32.22° C 71% 1022.2 hPa 0 mm - 766 W/m² -
1788278977 32.22° C 70% 1022 hPa 0 mm - 763 W/m² -
1788278673 32.22° C 71% 1022.2 hPa 0 mm - 761 W/m² -
1788278373 32.22° C 70% 1022.3 hPa 0 mm - 759 W/m² -
1788278067 32.78° C 70% 1022.1 hPa 0 mm - 755 W/m² -
1788277764 32.78° C 70% 1022.1 hPa 0 mm - 748 W/m² -
1788277463 33.33° C 67% 1022.2 hPa 0 mm - 742 W/m² -
1788277158 33.33° C 69% 1022.4 hPa 0 mm - 734 W/m² -
1788276858 33.33° C 69% 1022.1 hPa 0 mm - 726 W/m² -

* Rain latest hour (hover to see other rain measurements)
** Current wind speed in m/s (hover to see current wind gust speed)